Regional Weather Roundup
Issued by NWS Glasgow, MT

Home | Current Version | Previous Version | Text Only | Print | Product List | Glossary On
Versions: 1 2 3 4 5 6 7 8 9 10 11 12 13 14 15 16 17 18 19 20 21 22 23 24 25 26 27
000
ASUS45 KGGW 061415
RWRGGW
HOURLY REGIONAL WEATHER ROUNDUP FOR NORTHEAST MONTANA
NATIONAL WEATHER SERVICE GLASGOW MONTANA
800 AM MDT FRI MAY 06 2016

NOTE: "FAIR" INDICATES FEW OR NO CLOUDS BELOW 12,000 FEET WITH NO
SIGNIFICANT WEATHER AND/OR OBSTRUCTIONS TO VISISBILITY.

NORTHEAST MONTANA


CITY           SKY/WX    TMP DP  RH WIND       PRES   REMARKS
GLASGOW        LGT RAIN  50  45  83 NW10      30.17R
PLENTYWOOD       N/A     50  42  74 N17G25      N/A
WOLF POINT     CLOUDY    57  43  59 N16       30.11R
JORDAN           N/A     53  43  68 N13G23    30.13R
SIDNEY         CLOUDY    57  39  51 N20G29    30.06R
GLENDIVE       MOSUNNY   55  43  62 N23G31    30.05F
MALTA            N/A     50  42  74 NW6         N/A
SCOBEY           N/A     49  39  68 N20       30.07F
OPHEIM           N/A     45  39  81 CALM      29.92R

FORT PECK REPORTS


CITY           SKY/WX    TMP DP  RH WIND       PRES   REMARKS
FORT PECK        N/A     55  43  63 NW13G22     N/A
THE PINES        N/A     52  44  74 NW10G18     N/A

SOUTHEAST MONTANA


CITY           SKY/WX    TMP DP  RH WIND       PRES   REMARKS
BILLINGS       CLOUDY    55  41  59 N13       30.17R HAZE
MILES CITY     CLOUDY    60  42  51 N20G30    30.06R
BAKER          SUNNY     58  43  57 N15G28    30.03R
LIVINGSTON     PTSUNNY   54  40  59 E15       30.16R HAZE

CENTRAL MONTANA


CITY           SKY/WX    TMP DP  RH WIND       PRES   REMARKS
HAVRE          CLOUDY    50  42  74 N7        30.26R
LEWISTOWN      CLOUDY    47  44  90 NW10      30.23R FOG
GREAT FALLS    LGT RAIN  46  45  96 N9        30.27R
CUT BANK       CLOUDY    47  41  80 N12       30.28R
HELENA         CLOUDY    50  43  77 NW10G20   30.23R
BUTTE          CLOUDY    46  38  73 SE5       30.18R
BOZEMAN        CLOUDY    53  43  68 W7        30.13R

WESTERN MONTANA


CITY           SKY/WX    TMP DP  RH WIND       PRES   REMARKS
MISSOULA       MOSUNNY   57  42  57 SE16      30.12R
KALISPELL      NOT AVBL

NORTH DAKOTA


CITY           SKY/WX    TMP DP  RH WIND       PRES   REMARKS
WILLISTON      NOT AVBL
DICKINSON      MOSUNNY   60  45  57 N16G25    29.96
MINOT          MOSUNNY   67  46  47 N20G31    29.91
BISMARCK       NOT AVBL

SOUTHERN SASKATCHEWAN


CITY           SKY/WX    TMP DP  RH WIND       PRES   REMARKS
REGINA         PTSUNNY   50  39  66 N15       30.14R
MOOSE JAW      PTSUNNY   50  39  66 NW7       30.17R
ESTEVAN        PTSUNNY   55  43  62 N20       30.04R
SWIFT CURRENT  SUNNY     46  37  71 NW13      30.19R





USA.gov is the U.S. government's official web portal to all federal, state and local government web resources and services.